Luke AFB, AZ

7:16 PM MST on December 03, 2016 (GMT -0700)
Luke Air Force Base

Weather History for KLUF - December, 2012

Change the Weather History Date:

Sunday, December 2, 2012

  Actual Average Record
Temperature  
Mean Temperature 61 °F -  
Max Temperature 74 °F 70 °F 86 °F (1924)
Min Temperature 48 °F 37 °F 27 °F (1918)
Degree Days  
Heating Degree Days 4    
Growing Degree Days 11 (Base 50)    
Moisture  
Dew Point 43 °F    
Average Humidity 55    
Maximum Humidity 75    
Minimum Humidity 32    
Precipitation  
Precipitation 0.00 in - - ()
Sea Level Pressure  
Sea Level Pressure 30.02 in    
Wind  
Wind Speed 4 mph (North)    
Max Wind Speed 7 mph    
Max Gust Speed -    
Visibility 10 miles    
Events      
Averages and records for this station are not official NWS values.
T = Trace of Precipitation, MM = Missing Value Source: NWS Daily Summary

Daily Weather History Graph

Daily Weather History Graph

Search for Another Location

Airport or City:

Trip Planner

Search our weather history database for the weather conditions in past years. The results will help you decide how hot, cold, wet, or windy it might be!

Date:

Astronomy

Dec. 02, 2012 Rise Set
Actual Time 7:17 AM MST 5:21 PM MST
Civil Twilight 6:49 AM MST 5:48 PM MST
Nautical Twilight 6:19 AM MST 6:19 PM MST
Astronomical Twilight 5:48 AM MST 6:49 PM MST
Moon 9:07 PM MST (12/2) 10:13 AM MST (12/2)
Length of Visible Light 10h 58m
Length of Day
10h 04m
Waning Gibbous, 85% of the Moon is Illuminated
Dec 2
Waning Gibbous
Dec 6
Last Quarter
Dec 13
New
Dec 19
First Quarter
Dec 28
Full

Hourly Weather History & Observations

Time (MST) Temp. Dew Point Humidity Pressure Visibility Wind Dir Wind Speed Gust Speed Precip Events Conditions
12:58 AM 54.9 °F 43.9 °F 66% 30.03 in 10.0 mi North 6.9 mph - N/A   Clear
1:58 AM 53.1 °F 43.0 °F 69% 30.03 in 10.0 mi NNE 4.6 mph - N/A   Clear
2:58 AM 52.0 °F 43.3 °F 72% 30.04 in 10.0 mi NNE 5.8 mph - N/A   Clear
3:58 AM 52.3 °F 42.1 °F 68% 30.04 in 10.0 mi North 4.6 mph - N/A   Clear
4:58 AM 50.5 °F 42.8 °F 75% 30.04 in 10.0 mi North 2.3 mph - N/A   Clear
5:58 AM 49.6 °F 41.4 °F 73% 30.04 in 10.0 mi NNE 4.6 mph - N/A   Clear
6:58 AM 48.7 °F 41.0 °F 75% 30.05 in 10.0 mi North 4.6 mph - N/A   Clear
7:58 AM 49.8 °F 40.6 °F 71% 30.05 in 10.0 mi North 3.5 mph - N/A   Clear
8:58 AM 57.0 °F 44.2 °F 62% 30.07 in 10.0 mi North 3.5 mph - N/A   Clear
9:58 AM 61.5 °F 41.5 °F 48% 30.09 in 10.0 mi NNW 1.2 mph - N/A   Clear
10:58 AM 64.6 °F 42.8 °F 45% 30.08 in 10.0 mi NE 3.5 mph - N/A   Clear
11:58 AM 68.5 °F 40.5 °F 36% 30.05 in 10.0 mi ESE 4.6 mph - N/A   Clear
12:58 PM 71.2 °F 41.9 °F 35% 30.03 in 10.0 mi Calm Calm - N/A   Clear
1:58 PM 72.9 °F 42.6 °F 34% 29.99 in 10.0 mi Variable 2.3 mph - N/A   Clear
2:58 PM 74.3 °F 43.7 °F 33% 29.98 in 10.0 mi Calm Calm - N/A   Clear
3:58 PM 74.8 °F 42.8 °F 32% 29.98 in 10.0 mi SSW 4.6 mph - N/A   Clear
4:58 PM 74.3 °F 43.0 °F 33% 29.98 in 10.0 mi SSW 5.8 mph - N/A   Clear
5:58 PM 70.7 °F 43.5 °F 37% 29.98 in 10.0 mi South 3.5 mph - N/A   Clear
6:58 PM 68.5 °F 42.3 °F 38% 29.99 in 10.0 mi Calm Calm - N/A   Clear
7:58 PM 62.8 °F 45.3 °F 53% 30.00 in 10.0 mi Calm Calm - N/A   Clear
8:58 PM 58.6 °F 46.8 °F 65% 30.01 in 10.0 mi West 3.5 mph - N/A   Clear
9:58 PM 58.1 °F 45.1 °F 62% 30.01 in 10.0 mi North 4.6 mph - N/A   Clear
10:58 PM 56.3 °F 45.3 °F 67% 30.00 in 10.0 mi NNW 6.9 mph - N/A   Clear
11:58 PM 55.8 °F 43.2 °F 63% 30.01 in 10.0 mi NNW 3.5 mph - N/A   Clear